Theta_e
285 285 284 284 283 283 282 281 281 280 279 278 277 277 277 276 275 274 273 273 272 271 271 270 269 269 269 268 268 267 267 266 266 266 265 265 265 264 264 264 263 263 263 262 262 262 262 262 261 261 261 261 261 261 261 261 261 261 261 261 262 262 262 262 263 263 263 263 263 263 263 263 263 264 264 264 264 265 265 265 265 265 265 265 265
285 285 285 284 283 283 282 281 280 279 278 277 276 276 276 275 274 274 273 273 272 271 270 270 269 269 268 268 267 267 266 266 266 265 265 265 265 264 264 264 263 263 263 262 262 262 262 261 261 261 261 261 261 261 261 261 261 261 261 261 261 262 262 262 262 262 263 263 263 263 263 263 263 264 264 264 264 264 264 264 264 264 264 264 265
286 286 285 284 284 283 282 281 280 279 278 277 276 276 276 275 274 273 273 272 271 270 270 269 269 269 268 268 267 267 266 266 265 265 265 265 264 264 264 263 263 263 262 262 262 262 261 261 261 261 261 261 260 260 260 260 260 260 260 261 261 261 262 262 262 262 262 262 262 263 263 263 263 263 263 263 263 263 263 264 264 264 264 264 264
286 285 284 284 283 282 281 280 279 278 277 277 276 276 275 274 273 273 272 272 271 270 270 269 269 268 268 267 267 266 266 266 265 265 265 264 264 264 264 263 263 263 262 262 262 261 261 261 261 261 261 260 260 260 260 260 260 260 260 260 261 261 261 261 261 262 262 262 262 262 262 263 263 263 263 263 263 263 263 263 264 264 264 264 264
285 285 284 283 282 281 280 279 278 278 277 277 276 276 274 273 273 272 272 271 270 270 269 269 269 268 268 267 267 266 266 265 265 265 265 264 264 264 263 263 263 263 262 262 262 261 261 261 261 261 260 260 260 260 260 260 260 260 260 260 260 261 261 261 261 261 261 262 262 262 262 262 262 263 263 263 263 263 263 263 264 264 264 264 264
284 284 283 282 281 281 280 279 278 277 277 276 276 275 273 273 272 272 271 271 270 270 269 269 268 268 267 267 267 266 266 265 265 265 264 264 264 264 263 263 263 262 262 262 262 261 261 261 261 261 260 260 260 260 260 260 260 260 260 260 260 260 260 261 261 261 261 261 261 262 262 262 262 262 263 263 263 263 263 264 264 264 264 264 264
284 283 282 281 281 280 279 278 278 277 276 276 275 273 273 272 272 271 271 270 270 269 269 268 268 268 267 267 266 266 265 265 265 264 264 264 264 263 263 263 263 262 262 262 261 261 261 261 261 260 260 260 260 260 260 260 261 260 261 261 261 260 260 260 260 261 261 261 261 261 261 262 262 262 262 263 263 263 263 263 264 264 264 264 264
283 282 281 280 279 279 279 278 277 276 276 275 273 273 272 272 271 271 270 270 269 269 268 268 268 267 267 266 266 265 265 265 264 264 264 264 263 263 263 263 262 262 262 262 261 261 261 261 261 260 260 261 261 261 261 261 261 261 261 261 261 260 260 260 260 260 260 260 261 261 261 262 262 262 262 262 263 263 263 263 264 264 264 264 264
281 281 280 279 279 278 277 276 276 275 274 273 273 272 272 271 271 270 270 269 269 268 268 267 267 267 266 266 265 265 265 264 264 264 264 263 263 263 263 263 262 262 262 262 261 261 261 261 261 261 261 261 262 262 262 262 261 261 261 261 261 260 260 260 260 260 260 260 261 261 261 262 262 262 262 262 263 263 263 263 263 264 264 264 264
280 279 279 278 278 277 276 275 275 274 273 272 272 272 271 271 270 269 269 268 268 268 267 267 266 266 266 265 265 265 264 264 264 264 264 264 263 263 263 262 262 262 261 261 261 261 262 262 262 262 262 262 262 262 262 262 262 261 261 261 261 261 260 260 260 260 260 261 261 261 261 262 262 262 262 263 263 263 263 263 263 264 264 264 264
279 279 278 278 277 276 275 274 274 273 272 272 272 271 271 270 269 269 268 268 267 267 267 266 266 265 265 265 265 264 264 264 263 263 264 264 265 264 264 263 263 262 262 262 262 262 262 262 262 262 263 262 262 262 262 262 261 261 261 261 261 261 261 260 260 261 261 261 262 262 262 262 262 262 262 263 263 263 263 263 263 264 264 264 264
278 277 277 276 275 275 274 273 272 272 272 271 271 270 270 269 268 268 267 267 267 266 266 266 265 265 265 264 264 264 264 263 263 264 264 265 265 265 265 265 264 264 264 264 263 263 263 262 262 262 263 263 263 262 262 262 262 262 262 262 262 263 263 262 262 262 262 262 262 262 262 262 262 263 263 263 263 263 263 264 264 264 264 264 264
277 276 276 275 274 273 273 272 272 272 271 271 270 269 268 268 267 267 267 267 266 266 266 265 265 265 264 264 264 264 264 263 263 264 264 265 265 265 265 265 265 265 265 265 264 264 264 263 263 262 262 263 263 262 262 262 262 262 262 262 262 263 263 264 264 263 263 263 263 263 263 263 263 263 263 263 264 264 264 264 264 264 264 264 264
275 275 274 274 273 273 272 272 272 271 270 270 269 268 268 267 267 267 266 266 266 266 265 265 265 265 264 264 264 263 263 263 263 263 264 264 265 265 265 265 265 265 265 264 264 264 264 264 264 263 263 262 262 262 262 262 262 261 261 261 261 261 262 262 263 263 263 263 263 263 263 263 263 263 263 263 263 263 263 263 264 264 264 264 264
274 274 273 273 272 272 272 271 271 270 270 269 268 267 267 267 266 266 266 266 265 265 265 265 264 264 264 264 263 263 263 263 262 263 264 264 265 265 265 265 265 265 265 264 264 264 264 264 264 263 263 262 262 262 262 261 261 261 261 260 260 260 261 261 261 262 262 262 262 262 262 262 262 262 263 263 263 263 263 263 263 263 263 263 263
273 273 272 272 272 272 271 271 270 269 269 268 267 267 267 266 266 266 265 265 265 265 265 264 264 264 264 263 263 263 263 262 262 263 263 264 264 265 264 264 264 264 264 264 263 263 263 263 263 262 262 262 262 262 262 261 261 260 260 260 260 260 260 260 261 261 261 262 262 262 262 262 263 263 263 263 263 263 263 263 262 262 263 263 263
273 272 272 272 272 271 271 270 269 269 268 267 267 267 266 266 266 265 265 265 265 264 264 264 264 263 263 263 262 262 262 262 262 262 263 263 264 264 264 263 263 263 263 263 263 262 262 262 262 262 262 261 261 261 262 262 262 261 261 261 260 260 260 260 261 261 262 262 263 263 263 264 264 264 265 265 265 264 264 263 263 263 264 264 264
273 273 273 272 272 271 270 269 269 268 267 267 267 266 266 266 265 265 265 264 264 264 263 263 263 263 262 262 262 262 262 261 261 261 262 263 263 263 263 263 263 263 263 262 262 262 262 262 262 261 261 261 261 261 262 262 262 262 262 261 261 261 261 261 261 261 262 262 263 264 264 265 265 265 264 265 264 264 264 263 263 263 263 263 264
273 273 273 272 271 270 269 269 268 267 267 267 266 266 265 265 265 265 264 264 263 263 263 262 262 262 262 262 261 261 261 261 260 260 261 262 263 263 263 262 262 262 262 262 262 261 261 261 261 261 261 261 261 261 262 262 262 262 262 262 262 262 261 261 261 261 261 262 263 263 264 264 264 263 263 263 263 263 263 262 262 262 262 263 263
273 273 272 271 270 269 269 268 268 267 267 266 265 265 265 265 264 264 264 263 263 263 262 262 262 261 261 261 261 260 260 260 260 260 260 261 262 262 262 262 262 262 262 262 262 261 261 261 260 261 261 261 262 262 263 263 263 263 262 262 262 262 261 261 261 261 262 262 262 263 263 263 263 263 263 263 262 262 262 262 261 261 261 261 262
272 272 271 270 269 269 268 268 267 267 266 265 265 265 264 264 264 263 263 263 262 262 262 261 261 261 261 260 260 260 259 259 260 259 259 260 261 262 262 262 262 262 262 262 261 261 261 261 260 260 261 261 262 262 263 264 264 264 263 263 263 263 262 262 262 262 262 262 262 262 262 263 263 263 262 262 262 261 261 261 261 260 260 260 261
272 271 270 269 269 268 268 267 267 266 265 265 264 264 264 263 263 263 262 262 261 261 261 260 260 260 260 259 259 259 259 259 259 259 259 259 260 261 262 262 262 262 262 261 261 261 261 261 260 260 260 261 262 262 263 263 264 264 264 264 264 264 264 264 263 263 263 263 262 262 261 261 262 262 261 261 261 261 261 260 260 260 260 260 260
271 270 270 269 268 268 267 267 266 265 265 264 264 264 263 263 263 262 262 261 260 260 260 259 259 258 258 259 258 259 259 259 258 258 258 258 259 260 261 261 262 262 262 262 262 261 261 261 261 261 261 261 262 262 263 263 263 264 264 265 265 265 264 263 263 262 262 261 261 260 260 260 260 261 261 261 261 261 260 260 260 260 260 260 259
270 269 269 268 268 267 267 266 265 265 264 264 263 263 263 262 262 261 261 260 260 259 259 258 257 257 257 257 258 258 258 258 258 257 257 258 258 259 260 261 262 262 262 262 262 262 262 262 261 261 261 262 262 263 263 263 263 264 264 264 264 263 262 262 262 261 261 260 260 260 260 260 260 260 260 260 260 260 260 259 259 259 259 259 259
269 269 268 268 267 267 266 265 265 264 263 263 263 262 262 262 261 261 260 259 259 258 258 257 257 256 256 256 257 257 257 257 257 257 257 257 258 258 259 260 261 261 261 262 262 262 262 262 262 262 262 262 262 262 262 263 263 263 263 262 262 261 261 261 261 260 260 260 260 259 259 260 260 259 259 259 259 258 259 259 259 258 258 259 258
268 268 267 267 266 266 265 265 264 264 263 263 262 262 261 261 260 260 259 259 258 257 257 257 256 255 255 255 256 257 256 256 256 257 258 258 258 259 259 259 260 260 260 260 260 260 260 261 261 261 261 261 261 261 261 261 261 261 261 261 261 261 260 260 260 260 259 259 259 259 259 259 259 258 258 257 257 257 257 257 257 257 257 257 257
267 267 267 266 266 265 265 264 264 263 263 262 262 261 261 260 260 259 259 258 258 257 256 256 255 255 255 255 255 256 256 256 257 258 259 259 259 259 260 260 260 260 260 260 260 260 260 260 260 260 260 259 259 259 259 260 260 260 260 260 260 260 260 260 260 259 259 259 258 258 258 258 257 257 257 257 256 256 256 256 255 255 255 255 255
267 266 266 265 265 264 264 263 263 263 262 262 261 261 261 260 259 259 259 258 258 257 257 256 256 256 256 256 256 256 256 256 257 259 260 260 260 260 260 260 260 260 260 260 260 260 260 260 260 260 259 258 258 258 259 259 259 259 259 259 259 259 259 259 259 259 258 258 258 257 257 257 256 256 256 256 255 255 255 255 254 254 254 254 254
266 266 265 265 264 264 263 263 262 262 262 261 261 261 260 260 259 259 259 259 258 258 258 257 257 257 256 256 256 256 256 258 259 260 260 260 260 260 260 260 261 261 261 261 261 260 260 260 259 259 258 258 257 258 258 258 258 259 259 259 259 259 259 259 258 258 258 258 257 257 256 256 256 256 255 255 255 255 255 254 254 254 254 254 254
265 265 264 264 264 263 263 262 262 261 261 261 260 260 260 260 259 259 259 259 259 258 258 258 259 258 258 258 258 257 258 260 261 261 261 262 262 262 261 261 261 261 261 261 261 259 259 259 258 258 258 257 257 257 257 257 257 258 258 258 258 258 258 258 258 258 258 257 257 256 256 255 255 255 254 254 254 254 254 254 253 253 253 254 254
264 264 264 263 263 263 262 262 261 261 260 260 259 259 259 260 259 259 259 259 259 259 259 260 261 261 261 260 260 260 260 261 261 261 261 262 263 263 262 262 262 262 262 261 260 259 259 258 258 258 258 257 257 257 257 257 257 257 257 257 257 257 257 257 257 257 257 256 256 256 255 255 255 254 254 254 254 253 253 253 253 253 253 253 254
263 263 263 263 262 262 261 261 260 260 259 259 258 258 257 258 258 259 259 258 258 259 260 261 261 262 262 262 261 261 261 261 261 261 262 262 262 261 261 261 261 262 262 261 261 260 260 259 259 258 258 258 257 257 257 257 257 257 257 256 256 256 256 256 256 256 256 256 255 255 255 254 254 254 253 253 253 253 252 252 252 252 253 253 253
263 262 262 262 261 261 260 260 260 259 259 258 258 257 256 256 256 257 257 257 257 258 258 259 260 260 260 260 260 260 260 260 260 260 260 260 259 259 259 260 261 261 261 261 261 260 260 259 258 258 258 257 257 256 256 256 255 255 255 255 255 255 255 256 255 255 255 255 255 254 254 254 253 253 253 252 252 252 252 252 252 252 252 252 253
262 262 261 261 260 260 260 259 259 259 258 258 258 257 257 256 255 255 255 255 255 256 256 256 257 257 257 256 256 256 257 257 258 257 257 257 258 259 259 260 260 260 260 259 259 258 258 257 257 256 256 256 256 255 255 255 255 254 254 254 254 254 254 254 254 254 254 254 253 253 253 253 252 252 252 252 252 251 251 251 251 251 252 252 252
261 261 261 260 260 260 259 259 259 259 258 258 258 257 256 256 255 254 254 254 254 254 254 255 255 254 254 254 254 254 255 255 255 255 255 256 258 259 259 259 258 258 257 257 256 256 255 255 255 254 254 254 254 254 254 254 254 254 253 253 253 252 252 253 253 253 253 253 252 252 252 252 252 251 251 251 251 251 251 251 251 251 251 251 251
261 260 260 260 259 259 259 259 259 258 258 258 257 257 256 255 255 254 254 253 253 253 253 254 254 254 253 253 253 254 254 254 254 255 256 257 258 258 257 255 255 254 254 254 254 254 254 253 253 253 253 253 253 253 253 252 252 252 252 252 251 251 251 251 251 251 251 251 251 251 251 251 251 251 251 251 250 250 250 250 250 250 251 251 251
260 260 260 260 259 259 259 259 259 258 258 257 257 256 255 255 254 254 253 253 253 253 253 253 253 253 253 253 253 253 253 253 253 254 255 256 256 255 254 253 253 253 253 253 253 253 253 253 253 252 252 252 252 252 252 252 251 251 251 251 250 250 250 250 250 250 250 250 251 251 250 250 251 250 250 250 250 250 250 250 250 250 250 250 251
260 260 260 260 259 259 259 259 258 258 257 257 256 256 255 254 254 253 253 253 253 253 253 253 253 252 252 253 252 252 252 252 252 252 253 253 253 253 253 253 253 252 252 252 252 252 252 252 252 252 252 252 252 252 252 251 251 251 251 250 250 250 249 249 249 249 249 250 250 250 250 250 250 250 250 250 250 250 250 250 250 250 250 250 250
260 260 260 260 259 259 259 258 258 257 256 256 255 255 254 254 253 253 253 253 252 252 252 252 252 252 252 252 252 252 252 251 251 251 251 252 252 252 252 252 252 252 252 252 252 252 252 252 252 252 252 252 251 251 251 251 251 251 250 250 250 250 249 249 249 249 249 249 249 249 249 249 249 250 249 249 250 249 249 249 249 249 249 249 250
259 259 259 259 259 259 258 258 257 256 256 255 255 254 254 253 253 253 253 252 252 252 252 252 252 252 252 252 252 252 252 252 252 252 252 252 252 252 252 252 252 252 252 252 252 252 251 251 251 251 251 251 251 251 251 251 250 250 250 250 249 249 249 249 249 249 248 249 249 249 249 249 249 249 249 249 249 249 249 249 249 249 249 249 250
259 259 259 258 258 258 257 257 256 256 255 255 254 254 253 253 253 253 252 252 252 252 252 252 252 252 252 252 252 252 252 252 252 252 252 252 252 252 252 252 251 251 251 251 251 251 251 251 251 251 251 251 251 250 250 250 250 250 250 249 249 249 249 249 249 248 248 248 248 248 248 248 248 248 249 249 249 249 249 249 249 249 249 249 249
258 258 258 257 257 257 256 256 256 255 255 254 254 253 253 253 253 252 252 252 252 252 252 252 252 252 251 251 251 252 252 252 252 251 251 251 251 251 251 251 251 251 251 251 251 251 251 251 251 251 251 250 250 250 250 250 250 250 249 249 249 249 249 249 248 248 248 248 248 248 248 248 248 248 248 248 248 249 249 249 249 249 249 249 249
257 257 257 257 256 256 256 256 255 255 254 254 253 253 253 253 252 252 252 252 252 252 251 251 251 251 251 251 251 251 251 251 251 251 251 251 251 251 251 251 251 251 251 251 251 251 251 251 251 251 251 250 250 250 250 250 250 249 249 249 249 249 248 248 248 248 248 248 248 248 248 248 247 248 248 248 248 248 248 248 248 248 248 248 248
257 257 256 256 256 256 255 255 255 254 254 253 253 253 252 252 252 252 252 252 251 251 251 251 251 251 251 251 250 250 251 251 251 251 251 251 251 251 251 251 251 251 251 251 251 251 251 251 251 251 250 250 250 250 250 250 250 249 249 249 249 248 248 248 248 248 248 248 248 248 247 247 247 247 247 247 248 248 248 248 248 248 248 248 248
256 256 256 256 256 255 255 255 254 254 253 253 252 252 252 252 252 251 251 251 251 251 251 250 250 250 250 250 250 250 250 251 251 251 251 251 251 251 251 251 251 251 250 251 251 250 250 251 250 250 250 250 250 250 250 250 249 249 249 249 248 248 248 248 248 248 248 248 247 247 247 247 247 247 247 247 247 247 247 248 248 248 248 248 248
256 256 256 255 255 255 254 254 254 253 252 252 252 252 252 251 251 251 251 251 250 250 250 250 250 250 250 250 250 250 250 251 251 251 251 251 250 250 250 250 250 250 250 250 250 250 250 250 250 250 250 250 250 250 250 249 249 249 249 249 248 248 248 248 248 247 247 247 247 247 247 246 246 246 246 246 247 247 247 247 248 248 248 248 248
256 256 255 255 255 254 254 254 253 252 252 252 251 251 251 251 251 251 250 250 250 250 250 250 250 250 250 250 250 250 250 250 250 250 250 250 250 250 250 250 250 250 250 250 250 250 250 250 250 250 250 250 249 249 249 249 249 249 249 248 248 248 248 248 247 247 247 247 247 247 246 246 246 246 246 246 246 247 247 247 247 247 247 248 248
256 255 255 255 254 254 253 253 252 252 252 251 251 251 251 250 250 250 250 250 250 250 250 250 250 250 250 250 250 250 250 250 250 250 250 250 250 250 250 250 250 250 250 250 250 250 250 250 250 249 249 249 249 249 249 249 249 249 248 248 248 248 247 247 247 247 247 247 247 246 246 246 246 246 246 246 246 247 247 247 247 247 247 247 248
255 255 255 254 253 253 253 252 252 252 251 251 251 250 250 250 250 250 250 250 250 250 250 250 250 250 250 250 250 250 250 250 250 250 250 250 250 250 250 250 250 249 249 249 249 249 249 249 249 249 249 249 249 249 249 248 248 248 248 248 247 247 247 247 247 247 247 246 246 246 246 246 245 246 246 246 246 247 247 247 247 247 247 247 248
255 255 254 254 253 253 252 252 251 251 251 251 250 250 250 250 250 250 249 250 250 250 250 250 250 250 250 250 250 250 250 250 249 249 249 249 249 249 249 249 249 249 249 249 249 249 249 249 249 249 249 249 249 248 248 248 248 248 248 247 247 247 247 247 247 246 246 246 246 246 246 245 245 246 246 246 246 247 247 247 247 247 247 247 248
255 255 254 253 253 252 252 251 251 251 251 250 250 250 250 250 250 249 249 250 250 250 250 250 250 250 250 250 250 250 249 249 249 249 249 249 249 249 249 248 248 248 248 249 249 249 249 249 249 249 249 248 248 248 248 248 248 247 247 247 247 247 247 247 246 246 246 246 246 245 245 245 245 246 246 246 246 247 247 247 247 247 247 247 248
Wind_Speed
36 36 37 37 37 38 37 37 37 36 36 35 35 35 34 31 28 25 23 21 20 20 21 22 22 22 22 22 22 21 21 21 21 23 25 27 27 26 24 23 23 22 21 20 20 20 20 20 20 20 19 18 18 17 18 18 18 17 15 15 15 14 15 16 16 18 20 16 14 15 14 15 17 17 17 19 18 19 21 22 24 27 29 29 29
36 36 35 35 36 37 36 35 34 34 34 34 34 34 33 31 28 25 23 21 21 21 21 21 22 22 23 23 23 22 22 22 22 24 26 27 27 26 25 24 24 23 22 22 21 21 22 22 22 21 20 21 21 20 20 21 21 19 18 17 16 14 13 16 16 18 20 16 13 14 14 13 15 16 15 17 18 19 24 28 29 29 29 28 28
34 34 33 34 35 34 34 33 33 33 33 33 33 33 32 30 27 24 22 21 21 21 21 21 22 23 24 24 24 23 23 23 24 25 27 28 28 27 27 26 25 25 24 24 23 23 23 23 23 22 21 22 23 23 23 23 22 22 21 20 17 14 13 14 16 18 21 19 14 14 14 14 15 16 16 17 19 22 25 27 28 28 29 28 26
32 31 31 32 32 31 31 31 31 32 32 32 32 32 31 29 26 23 21 20 20 21 21 22 23 24 25 25 24 24 24 24 25 26 27 28 28 28 28 27 27 27 26 26 25 25 24 25 25 24 23 24 24 24 24 25 24 23 21 18 16 15 13 13 16 17 19 20 16 13 14 15 16 16 17 18 19 21 23 23 25 28 28 27 25
30 29 29 29 29 30 30 30 30 31 31 31 31 31 30 27 24 21 20 20 21 21 22 23 24 25 26 26 26 25 25 25 26 27 28 28 28 29 29 29 28 28 27 27 26 26 26 27 26 25 24 25 25 26 26 25 26 24 19 15 15 15 13 13 15 15 17 20 17 14 13 15 16 16 16 18 19 20 20 20 22 24 26 26 26
27 27 27 27 28 29 29 29 30 30 30 30 30 29 27 24 22 21 20 21 21 22 23 24 25 26 27 27 26 26 25 26 27 28 28 28 28 29 29 29 29 29 28 28 27 28 28 28 28 27 26 27 27 27 27 26 26 26 23 20 19 19 17 17 16 15 17 18 17 16 14 14 17 17 14 15 18 19 19 19 19 20 22 25 27
24 25 25 26 27 27 28 28 28 28 28 28 27 26 24 21 20 20 20 21 22 23 25 25 26 27 27 27 27 26 26 27 28 28 29 29 29 29 30 30 30 30 30 29 29 29 30 30 30 29 28 28 28 27 27 26 25 26 26 25 25 24 23 23 20 18 17 17 16 15 15 14 16 17 15 14 17 18 18 20 20 19 20 22 23
22 23 24 25 26 27 27 27 27 26 26 25 24 23 21 20 19 19 20 22 23 24 25 25 26 26 27 27 26 26 27 28 28 28 29 29 29 30 31 31 32 31 31 31 31 31 32 31 31 31 29 28 27 26 25 25 25 27 26 26 27 28 27 27 24 20 18 17 15 13 15 16 16 17 16 15 16 17 17 19 21 21 21 22 22
21 22 23 25 25 25 25 24 24 24 23 23 22 21 19 19 19 20 21 22 23 24 24 24 25 26 26 26 26 26 27 28 28 28 29 30 30 31 32 33 33 33 32 33 33 33 33 32 31 30 29 27 26 25 25 24 25 28 28 27 28 29 28 28 26 21 18 16 14 13 14 16 16 16 17 15 16 18 19 20 22 23 23 24 24
20 21 23 24 24 23 23 22 22 22 22 22 20 19 18 18 19 20 21 22 23 23 23 24 25 25 26 26 27 28 28 29 29 28 28 28 29 31 32 32 32 32 31 31 33 33 33 33 32 30 28 27 27 26 26 26 27 28 29 28 29 30 29 28 28 25 20 16 14 15 16 17 17 17 19 18 18 20 22 22 23 23 23 23 22
20 22 23 23 22 22 22 21 21 22 21 19 18 17 17 18 19 20 21 22 22 22 23 24 25 25 26 27 28 28 29 29 29 27 26 26 27 29 30 30 30 31 31 31 32 33 32 32 32 31 29 29 29 28 27 27 27 28 29 29 29 30 30 30 31 30 24 18 15 16 17 18 18 19 20 20 20 22 23 23 23 22 20 19 18
20 21 21 21 21 21 21 21 21 20 19 17 17 16 17 18 19 20 21 22 22 22 23 24 25 26 26 27 28 29 30 30 27 25 25 26 28 29 29 29 29 30 31 32 32 33 33 31 30 30 30 29 28 29 29 28 28 28 29 30 30 31 32 33 34 32 28 23 19 18 19 20 21 21 21 22 22 23 23 22 22 21 20 19 18
19 20 20 20 21 21 21 21 20 18 17 16 16 16 17 19 20 21 22 22 22 23 24 25 26 27 27 27 29 29 30 30 27 24 25 27 29 30 30 30 29 28 29 29 29 29 29 28 27 27 28 27 27 29 30 30 29 29 30 31 31 32 33 34 34 32 29 25 22 19 18 18 18 18 19 20 21 21 21 21 21 20 20 21 22
19 19 20 20 21 21 20 19 18 17 16 15 15 16 18 19 20 21 21 22 22 24 24 25 27 27 27 28 29 30 31 31 28 25 26 28 29 30 30 30 30 29 30 30 30 30 30 29 28 26 27 28 28 29 30 29 30 31 32 33 34 35 35 35 35 34 33 31 29 26 23 22 23 25 27 28 27 27 26 27 27 25 24 25 25
18 19 19 20 20 20 19 18 17 16 15 15 16 17 18 19 20 21 21 22 23 23 25 26 27 27 28 27 29 31 32 31 29 26 26 28 28 28 29 30 30 29 29 30 29 28 28 27 27 26 27 28 29 28 28 29 31 33 34 35 37 38 38 38 38 38 38 38 38 38 36 34 34 34 34 34 34 34 35 36 35 31 29 27 25
18 19 19 20 20 19 18 17 16 15 15 16 17 18 19 20 20 20 21 21 22 23 25 26 27 28 28 27 29 32 33 31 28 26 26 27 28 27 27 28 28 27 28 29 28 28 27 26 26 27 27 28 29 28 28 29 31 33 35 36 36 37 39 39 38 39 39 39 39 39 36 35 35 35 35 34 34 35 36 35 30 25 23 19 17
17 18 18 19 19 18 17 16 15 15 15 16 18 18 19 20 20 20 20 21 22 24 25 26 27 27 28 28 29 32 33 32 29 26 26 27 26 26 26 26 26 26 27 28 27 28 30 31 31 30 30 30 31 30 28 29 30 31 33 34 34 36 37 37 37 36 36 36 37 37 35 34 34 33 31 28 26 26 25 21 16 15 15 12 11
16 17 18 18 18 17 16 15 14 15 16 17 18 19 19 20 20 20 20 21 23 23 24 26 26 27 28 28 29 31 33 33 30 27 26 26 26 26 27 26 26 26 26 26 26 25 27 29 30 30 30 31 31 29 28 29 30 30 31 32 33 35 36 35 35 36 35 34 33 33 33 32 29 26 22 19 19 18 16 14 13 13 13 12 12
16 16 17 16 16 15 14 14 14 15 17 18 19 19 20 19 19 19 20 21 22 23 24 25 27 28 28 29 29 30 33 34 32 29 27 26 26 26 26 26 27 27 25 25 26 27 28 29 30 30 30 30 30 30 30 32 33 32 31 29 30 32 32 33 34 35 35 35 34 33 32 30 28 26 25 23 23 22 20 18 16 14 13 13 13
15 15 15 15 14 14 13 14 15 17 18 19 18 18 18 18 19 19 20 21 22 23 24 26 28 29 29 30 30 31 32 34 34 31 28 27 26 25 26 27 29 29 27 26 26 27 28 30 32 32 30 29 30 30 30 32 33 34 33 32 33 34 35 35 37 37 37 37 35 34 33 31 31 30 28 26 24 22 21 19 17 16 15 14 14
14 15 15 14 14 14 14 15 17 18 18 17 17 17 18 18 18 19 20 21 22 24 25 26 28 30 30 30 31 32 33 34 35 33 29 27 27 26 26 28 29 28 27 26 24 22 23 26 29 30 29 29 30 30 30 31 33 34 35 36 37 38 39 39 38 36 36 35 33 32 32 32 32 31 29 27 25 21 19 18 18 17 17 16 16
14 15 15 14 14 14 15 16 17 17 17 16 17 18 18 18 19 19 20 21 22 24 26 26 28 30 31 31 32 33 33 33 34 34 31 28 27 26 27 28 28 27 27 27 25 23 23 26 29 31 31 30 30 31 31 32 33 33 33 34 35 36 35 33 31 30 29 28 25 24 24 25 25 25 25 25 24 21 19 19 19 19 20 21 21
15 15 15 15 15 15 16 16 16 17 16 16 17 18 18 18 19 20 20 21 22 24 26 26 26 28 31 32 32 33 33 33 33 33 31 29 27 27 27 27 27 27 28 29 28 26 25 27 29 30 30 29 29 30 31 32 33 32 32 31 28 24 18 15 16 18 19 17 16 15 16 17 17 18 20 21 23 23 23 22 21 22 23 24 25
15 15 16 16 16 16 16 16 16 16 16 16 18 19 19 19 20 20 21 21 22 24 25 25 24 26 29 31 33 33 32 32 31 30 30 29 27 26 27 27 26 26 27 28 27 26 25 24 25 26 27 28 30 31 31 31 30 29 27 24 18 13 9 7 9 11 12 12 12 13 15 17 18 20 21 22 23 23 24 24 24 24 25 27 28
15 16 16 16 16 16 16 17 17 17 17 17 18 20 20 19 20 20 20 20 21 23 24 23 23 24 26 30 33 33 31 30 30 29 28 27 26 25 25 25 25 25 25 26 26 24 23 22 22 23 25 26 27 27 26 26 26 26 25 22 18 17 16 14 13 14 15 16 17 18 20 22 22 22 22 21 21 22 23 24 25 25 26 28 30
15 16 16 16 16 16 17 18 18 18 17 18 19 19 19 19 20 20 20 20 21 23 24 24 23 23 26 29 32 33 31 29 29 28 26 24 24 23 23 24 24 25 26 28 29 28 28 28 29 28 28 27 26 25 24 25 27 28 28 26 24 23 21 19 18 19 19 20 20 21 22 22 21 20 18 18 19 20 20 21 23 24 25 26 29
15 16 17 17 16 17 18 18 18 18 18 18 19 19 20 19 20 21 21 21 22 23 24 24 23 23 25 28 29 31 31 30 29 27 25 24 25 24 24 24 25 25 27 29 30 30 31 31 31 31 31 29 27 25 25 26 27 28 28 27 26 24 22 21 21 21 22 22 22 23 22 20 19 18 18 18 19 20 20 20 22 23 23 23 23
17 18 17 17 17 18 18 19 19 19 19 19 19 20 20 20 21 22 22 22 22 23 24 24 25 25 26 27 28 28 30 30 29 29 28 27 27 26 26 26 26 27 29 29 28 27 28 29 29 30 30 28 26 25 25 25 26 27 28 27 27 26 25 24 23 23 24 24 23 22 21 19 19 19 19 19 20 20 20 20 21 22 22 19 18
17 18 18 17 18 18 19 19 19 19 20 20 20 21 21 21 22 24 24 22 22 24 25 27 28 27 27 28 27 27 29 31 32 31 29 28 28 27 28 28 29 29 29 27 26 26 26 28 29 29 27 26 26 26 27 27 28 29 29 29 30 30 29 28 28 28 28 26 24 23 21 20 20 20 19 19 21 21 21 20 21 22 20 17 17
17 18 18 18 19 19 19 19 19 19 19 20 20 21 21 21 20 22 23 24 23 23 25 28 29 28 27 29 29 29 31 33 32 30 28 28 28 29 29 30 30 30 30 29 29 28 27 26 26 26 25 24 24 24 24 25 27 28 29 29 30 30 30 30 30 30 29 27 25 24 22 21 21 20 20 20 21 21 21 20 19 19 17 16 16
17 18 18 18 19 18 18 19 18 18 19 19 19 21 23 23 22 21 21 23 23 23 24 26 27 27 27 28 27 27 28 29 28 27 28 28 27 27 26 26 26 26 25 25 27 29 29 27 25 23 23 23 24 24 23 23 25 26 26 26 26 26 27 28 29 29 28 27 25 24 23 22 22 21 21 21 21 21 21 20 19 18 16 16 16
17 19 18 18 18 18 18 18 18 18 19 19 18 19 20 23 25 25 21 19 19 21 22 23 25 25 25 25 24 24 24 24 24 26 27 27 26 24 23 24 25 24 23 22 22 23 24 23 20 18 19 22 23 23 23 22 23 24 23 23 24 24 25 26 26 26 25 25 25 25 24 23 23 22 21 20 20 19 19 18 17 16 16 16 16
17 18 18 18 18 18 18 18 18 18 18 18 18 18 18 19 23 26 26 23 20 20 20 21 22 23 24 23 23 23 23 23 24 25 26 26 26 25 24 25 27 27 25 23 21 20 20 20 19 18 19 20 21 21 21 21 21 21 21 21 22 22 22 23 23 23 24 25 25 25 24 23 22 21 21 20 20 19 17 16 16 15 15 15 15
15 17 17 17 17 18 18 18 18 18 18 18 18 19 19 19 20 22 25 26 26 24 22 21 21 22 24 24 22 22 22 23 24 24 25 25 25 25 25 25 25 25 22 20 18 18 17 17 17 16 16 17 17 18 18 19 19 19 20 21 22 22 22 23 23 24 25 25 25 25 24 23 22 21 21 21 20 19 19 17 16 15 15 14 14
14 15 16 16 17 18 18 17 17 17 17 18 18 19 20 20 20 20 21 21 23 26 28 27 24 22 24 24 23 22 21 21 22 23 23 24 23 23 22 21 20 20 20 18 16 16 15 15 15 15 15 16 17 18 19 20 21 22 23 23 23 23 23 23 24 25 25 25 25 25 24 23 22 21 21 21 20 19 19 19 17 16 16 14 14
14 15 15 15 16 16 16 16 16 16 17 18 19 20 21 20 20 21 21 21 22 24 28 31 30 26 24 22 21 20 20 20 21 22 22 22 22 21 18 15 14 16 18 18 17 18 18 18 19 19 19 19 20 20 21 21 21 21 21 22 22 22 22 22 23 24 24 24 25 24 23 22 21 21 20 20 20 20 19 19 18 17 16 14 14
13 14 14 14 14 14 15 15 15 16 17 19 19 20 21 21 21 21 21 21 22 23 26 29 29 28 26 22 18 18 20 21 22 23 22 21 21 20 19 17 17 17 18 19 19 20 20 21 21 20 21 21 20 21 21 20 20 20 19 20 20 20 21 21 21 22 23 23 23 23 22 21 21 21 20 20 20 20 19 19 19 17 16 14 15
12 13 13 13 13 14 15 16 16 17 18 19 20 20 21 21 21 20 20 21 22 22 23 25 25 25 26 25 22 21 23 24 23 23 22 22 20 20 20 20 20 20 20 21 20 20 21 22 22 21 21 21 21 21 21 20 20 19 19 20 20 20 20 19 19 19 20 22 22 22 21 20 21 20 20 20 20 19 19 19 18 16 14 14 15
13 13 13 14 15 16 16 17 18 18 19 20 20 20 20 20 20 20 20 21 21 21 22 23 24 24 25 25 25 24 23 23 22 21 21 21 20 19 20 20 21 22 22 23 22 22 22 23 23 22 22 22 22 22 21 21 20 20 19 20 20 20 20 19 19 19 20 20 21 21 20 20 20 20 19 19 20 20 19 19 19 17 15 14 15
15 15 15 15 16 17 17 18 19 20 20 21 20 19 19 19 20 20 20 20 21 22 22 22 24 25 25 24 23 22 21 21 20 19 19 19 18 18 18 19 20 21 21 21 21 21 22 22 22 22 22 22 22 21 21 20 20 19 19 19 20 20 20 20 20 20 20 21 21 20 20 20 20 19 19 20 20 20 20 19 19 18 16 15 15
18 17 17 17 17 18 18 19 21 21 21 20 20 19 20 20 20 20 20 20 20 22 22 23 25 26 25 23 21 19 20 20 20 19 19 19 19 19 19 19 20 20 20 20 20 20 21 21 21 21 21 21 21 20 20 19 19 18 18 19 19 19 20 20 20 20 20 20 20 20 19 20 20 20 20 21 20 20 19 19 18 17 16 15 15
18 19 19 18 18 19 20 21 21 21 20 20 20 20 20 20 20 20 20 21 21 21 22 24 25 25 24 22 20 19 19 20 20 20 20 20 19 19 18 19 19 19 20 20 20 20 21 21 21 20 20 19 19 19 18 18 18 18 18 18 19 19 19 20 20 20 20 20 19 19 19 19 19 19 19 19 19 18 18 18 17 17 16 15 15
18 18 19 19 19 19 20 21 22 21 21 21 21 20 20 20 20 20 20 21 21 21 21 23 24 24 24 23 21 20 19 20 20 20 20 19 18 18 18 18 18 19 19 20 20 20 21 21 21 20 19 19 18 17 17 16 16 16 17 17 17 18 18 19 20 19 19 19 19 18 19 19 18 18 18 18 18 17 17 17 18 18 17 16 16
18 18 19 20 20 20 21 21 21 22 22 21 21 21 20 20 20 21 20 21 22 22 21 22 23 23 23 23 21 20 20 20 20 20 19 18 18 18 18 18 18 18 19 20 19 19 20 21 20 20 19 18 17 16 15 14 14 15 16 16 16 16 17 18 19 19 18 18 18 18 18 18 18 18 18 18 17 17 17 17 18 17 16 16 15
18 19 20 21 22 22 22 22 21 21 21 21 21 22 21 20 21 21 21 21 22 21 22 22 22 22 21 21 20 19 19 19 19 18 18 18 17 17 17 18 18 18 19 19 19 19 19 19 19 18 17 16 15 14 14 14 14 14 15 15 15 15 16 17 18 18 17 17 17 17 17 17 17 17 17 17 17 17 17 18 17 16 15 15 15
19 19 20 22 23 23 23 23 22 21 21 21 21 22 22 21 21 21 21 21 21 21 21 21 21 20 20 20 20 19 19 18 18 17 17 17 16 17 17 17 18 18 18 18 18 18 18 18 17 16 15 14 13 13 13 13 13 14 14 14 14 14 15 16 16 16 15 15 15 16 16 16 16 16 16 16 16 17 17 17 17 17 16 15 16
20 20 21 22 23 23 24 23 22 22 21 20 20 21 21 21 20 20 20 20 20 20 20 20 20 20 20 19 19 19 18 17 17 17 17 17 17 17 17 17 18 18 18 18 18 18 17 16 15 13 12 11 11 12 12 12 13 13 13 13 13 14 14 15 14 13 13 14 15 15 16 16 17 17 17 16 15 15 15 15 16 16 16 16 16
21 22 22 22 22 23 23 23 22 21 21 21 21 20 20 20 20 20 20 20 20 19 19 19 19 19 19 19 18 18 17 16 16 16 16 16 16 16 17 18 18 18 18 17 17 16 15 14 12 11 10 10 10 10 11 12 12 13 13 12 12 13 14 14 13 13 13 14 15 15 16 16 16 17 16 16 15 15 15 16 16 15 15 15 17
22 22 22 22 22 22 22 22 22 22 21 21 21 21 21 20 20 20 20 19 19 19 18 18 18 18 18 18 18 17 16 16 16 16 16 16 16 17 18 18 17 16 15 15 15 14 12 11 10 9 9 9 9 10 10 10 11 12 12 12 11 11 12 13 13 13 13 14 15 15 15 16 16 16 15 15 14 14 15 16 17 16 16 16 17
22 22 22 22 22 22 22 21 21 22 21 21 21 21 21 21 20 20 19 19 18 18 18 18 18 18 18 18 18 17 16 16 17 16 16 17 17 17 16 15 14 13 14 15 14 12 10 9 9 9 9 9 9 9 9 9 10 12 13 12 11 11 11 12 12 13 13 14 15 14 14 14 15 15 15 14 14 14 16 17 17 17 16 16 17
22 22 22 22 22 22 22 21 21 21 21 20 20 20 20 20 20 20 19 18 18 18 18 18 18 18 18 18 17 17 17 16 16 16 17 16 15 13 13 14 15 16 17 17 15 11 9 8 8 8 8 8 8 8 8 9 10 11 12 13 12 12 12 12 13 13 13 13 14 14 14 13 14 14 14 14 14 15 16 17 16 16 16 16 16
Wind_Direction
238 238 239 238 238 239 239 239 239 237 236 235 234 234 234 233 234 237 240 245 248 250 251 254 256 257 258 257 258 260 262 263 261 256 253 253 254 258 261 264 264 265 268 269 265 262 260 261 262 264 265 263 260 259 258 257 258 256 254 253 250 245 243 245 255 271 276 275 277 285 291 294 295 298 301 303 308 311 310 308 308 309 311 312 313
239 240 239 238 239 239 239 238 237 235 234 233 233 233 232 232 233 235 239 245 248 250 252 254 256 256 256 255 256 259 260 260 258 255 253 253 254 257 260 261 261 263 264 264 262 260 261 262 264 266 268 265 263 262 261 260 261 259 254 250 250 243 238 244 252 267 277 279 281 287 290 290 291 295 297 298 301 304 306 308 311 311 312 314 314
242 242 240 239 240 239 237 236 234 233 232 231 231 231 230 231 232 235 240 246 249 251 254 257 257 256 254 253 255 257 259 258 257 255 253 253 255 257 259 260 260 261 263 262 261 260 261 262 264 266 267 266 264 264 264 264 262 260 258 253 250 245 240 243 250 261 274 281 284 287 289 290 289 292 294 295 299 302 304 308 311 312 313 314 313
243 242 239 239 238 236 235 233 231 230 230 230 231 229 229 229 231 236 243 248 251 254 257 258 257 254 251 252 255 257 258 258 258 256 254 254 256 257 259 258 259 261 263 263 262 260 260 261 263 266 266 264 264 263 264 264 262 260 258 253 248 247 244 244 248 256 268 278 282 282 285 288 288 290 293 293 295 300 301 303 307 310 312 312 308
242 240 237 236 235 233 232 230 229 229 229 230 229 227 226 227 231 239 245 249 253 256 258 258 255 252 251 253 257 259 260 261 260 258 256 256 257 258 258 258 259 261 263 264 263 261 261 262 263 265 265 262 262 262 262 263 262 259 255 250 248 249 247 246 249 253 261 271 278 282 282 284 285 286 291 293 294 297 297 296 299 304 307 308 307
239 236 234 233 232 231 230 228 228 229 229 229 227 224 223 226 233 241 247 253 256 258 258 257 254 252 253 256 258 260 262 263 261 259 258 258 259 259 258 258 259 260 262 263 263 263 262 263 264 264 263 261 260 261 262 262 261 259 256 255 255 254 252 251 251 253 259 266 274 278 279 280 283 285 287 289 292 296 298 296 294 296 300 303 304
235 233 232 231 230 230 229 229 229 229 229 227 224 221 223 229 238 246 252 256 258 258 257 254 252 253 255 256 258 260 262 262 261 260 259 260 259 259 258 258 259 261 262 263 263 264 264 264 264 263 262 261 260 260 260 260 259 259 259 260 260 258 256 255 255 255 259 264 269 273 275 275 278 281 284 286 288 289 293 294 293 294 295 295 297
232 231 230 230 230 231 232 231 229 228 227 223 220 221 227 235 244 251 256 258 258 257 254 253 253 254 255 257 258 261 262 261 260 260 260 260 259 259 259 259 259 261 263 264 264 265 265 265 264 264 263 262 261 260 258 257 258 260 260 261 261 259 256 256 257 255 256 260 263 265 269 271 272 276 281 283 282 283 286 287 289 293 294 292 293
232 231 231 231 232 233 231 229 226 224 221 217 217 223 233 242 250 256 258 258 257 254 252 252 253 254 255 257 259 261 261 260 260 261 262 262 261 261 261 261 261 262 262 263 264 264 264 265 265 265 265 264 263 261 259 258 259 259 260 260 259 257 255 254 255 254 253 256 258 260 263 265 266 272 276 273 274 281 286 284 284 287 290 290 290
233 232 233 234 233 230 227 224 221 217 214 215 221 230 240 248 254 257 258 256 253 251 250 251 252 253 256 258 260 261 260 260 262 263 262 262 262 261 261 260 260 260 259 260 261 262 263 265 266 267 265 264 263 261 259 259 260 259 259 259 258 256 253 252 252 252 250 249 250 252 256 258 262 267 271 271 274 279 281 279 279 283 287 287 288
236 235 235 234 230 225 221 217 213 211 213 220 229 238 247 254 257 257 255 251 249 249 250 251 252 255 259 262 262 261 260 262 264 263 260 259 259 258 257 257 257 256 255 256 258 260 261 262 264 265 263 261 260 258 257 257 256 254 253 254 254 255 252 250 250 250 248 247 246 245 248 254 259 261 266 273 275 273 273 274 276 278 279 280 285
236 235 232 229 223 219 215 210 209 212 219 228 237 245 252 255 255 253 250 248 248 249 251 252 256 260 262 263 262 261 262 264 265 263 261 261 260 258 256 257 257 256 257 257 256 256 257 257 257 257 257 257 257 256 255 255 253 250 250 251 252 252 252 249 248 245 242 243 244 240 239 246 253 255 260 268 270 270 270 269 269 270 271 274 278
234 231 227 222 218 213 210 209 212 219 227 236 244 250 253 253 252 250 249 249 250 251 253 256 260 263 263 262 263 263 264 266 266 263 264 264 263 263 262 262 261 259 260 260 258 257 257 256 254 252 253 255 253 251 251 253 254 253 253 254 253 252 253 253 253 252 250 250 249 243 236 242 251 256 260 263 265 267 268 267 267 267 268 270 272
228 225 220 217 214 210 210 213 219 227 234 241 247 250 252 253 252 251 250 250 250 252 256 260 263 265 264 263 265 266 267 269 268 266 265 266 266 268 268 267 266 264 264 264 262 260 258 257 255 251 250 251 248 245 246 250 254 257 257 257 256 254 253 254 256 257 258 259 262 261 258 259 263 266 266 264 263 263 263 264 265 266 267 269 273
222 220 216 214 212 212 215 220 225 232 238 245 249 251 253 254 253 252 251 251 254 257 261 264 265 266 266 266 268 269 270 271 271 267 266 267 268 270 270 270 269 267 266 265 263 261 258 255 253 250 249 249 247 245 247 252 256 258 257 257 257 256 255 254 255 257 258 259 261 263 265 266 267 267 266 265 264 264 265 266 267 268 271 275 278
218 216 215 216 217 218 221 225 229 237 243 247 250 252 255 256 255 255 255 255 258 262 264 266 267 267 268 268 269 271 272 273 271 267 267 269 271 272 272 271 270 269 267 265 263 263 262 258 256 256 254 252 252 251 251 254 255 256 256 256 257 258 258 258 259 259 260 261 262 263 265 265 265 265 265 265 264 265 267 267 267 268 268 271 275
219 218 220 222 223 223 226 230 235 242 246 249 253 257 259 260 259 257 257 258 262 264 267 268 269 270 270 270 270 272 273 274 272 269 268 270 271 272 270 269 268 267 266 265 263 263 263 261 260 259 255 254 256 255 252 251 252 254 256 257 256 256 259 262 264 263 262 263 263 264 265 266 266 266 265 262 260 263 263 257 256 261 262 263 271
224 225 228 229 229 229 231 237 243 249 252 256 261 263 263 262 260 259 259 262 265 267 270 271 271 271 271 271 271 272 274 276 274 270 269 270 271 271 270 269 268 267 266 265 263 260 260 260 260 257 255 256 257 255 252 251 253 255 256 256 253 252 255 260 263 264 266 266 264 263 264 266 269 269 265 261 262 266 262 253 255 260 261 263 270
233 236 238 237 235 235 239 246 251 256 261 264 266 265 264 262 261 261 262 264 267 270 270 271 271 271 271 272 272 272 274 276 276 272 270 271 270 269 269 268 266 266 267 266 265 264 262 262 261 259 258 258 258 254 252 253 252 252 253 252 250 249 250 253 254 258 262 264 264 263 263 266 270 272 272 272 272 270 266 264 264 258 254 260 265
246 247 247 243 241 242 247 254 260 264 267 268 267 265 263 262 261 262 264 266 268 270 270 270 271 272 272 272 273 272 273 276 278 275 271 270 270 269 267 266 264 265 266 264 263 263 260 258 258 258 256 255 256 255 255 255 254 252 250 247 248 250 252 253 253 254 255 256 258 260 262 265 268 270 271 272 270 267 263 264 264 260 256 257 257
254 253 251 248 246 250 256 261 266 269 269 268 266 263 261 261 262 263 266 267 268 269 269 269 271 272 273 273 273 274 274 276 279 279 274 271 271 269 266 265 265 265 265 264 262 261 258 256 257 258 257 256 257 259 260 259 258 256 252 248 250 254 255 252 252 251 249 249 249 249 251 253 256 258 261 264 265 264 263 264 267 267 262 255 253
259 258 255 252 253 257 262 266 269 269 268 266 263 262 262 262 263 265 266 267 267 268 269 270 270 273 275 275 274 275 276 277 279 280 278 273 271 270 267 265 264 263 261 259 258 256 257 256 256 259 260 259 259 261 260 259 258 258 257 256 258 260 257 252 248 245 241 239 237 233 233 237 241 245 250 255 259 265 270 273 273 273 270 264 259
264 261 257 256 258 261 265 268 269 269 268 265 263 264 264 263 264 265 266 267 267 268 269 270 271 273 275 277 277 277 279 279 279 280 282 279 274 271 268 266 264 262 259 258 257 256 258 257 257 260 261 259 258 258 258 258 259 260 263 266 269 271 266 252 239 230 225 224 224 222 227 234 240 247 253 258 264 271 276 278 276 274 274 271 267
265 261 259 259 261 264 267 269 270 268 267 266 264 265 265 264 265 266 266 266 267 267 269 270 270 271 275 278 280 280 281 282 282 283 285 285 279 273 270 268 266 264 262 261 260 259 260 258 257 258 257 255 255 258 261 264 265 265 268 272 277 284 281 254 230 220 216 225 236 241 248 255 259 264 268 271 273 274 275 276 275 273 272 272 270
264 262 262 262 264 267 269 270 270 269 268 266 265 267 267 267 267 267 268 267 265 266 269 270 269 270 273 276 280 283 283 284 285 287 288 288 284 277 272 270 267 266 265 265 264 263 262 260 259 258 257 258 261 264 267 268 268 268 271 274 278 280 275 262 248 237 233 238 246 250 256 263 266 269 271 271 270 270 271 273 273 272 270 270 269
266 265 264 265 267 269 270 270 270 270 269 268 269 271 271 269 269 269 268 266 265 265 267 269 269 269 270 273 277 282 285 285 287 290 292 290 285 280 276 272 269 267 265 264 264 264 264 263 264 265 266 267 269 269 269 268 267 268 270 272 274 274 269 261 253 246 243 246 250 253 259 265 266 266 265 264 263 265 268 271 272 271 270 271 271
268 267 267 268 270 270 271 272 272 272 273 272 273 274 273 271 270 268 265 264 264 265 266 267 266 265 268 272 275 280 285 285 286 289 291 288 286 285 282 279 276 272 269 267 266 266 265 265 266 267 268 268 268 266 265 264 263 263 265 267 268 267 265 261 256 253 253 255 258 261 264 265 262 259 260 260 261 265 268 268 268 268 270 272 273
269 270 270 271 272 272 273 274 274 276 276 276 277 277 277 275 271 268 268 267 265 266 266 266 265 264 266 270 273 277 280 280 282 288 291 290 287 285 281 277 274 271 270 271 271 271 270 267 266 265 265 264 262 260 257 254 253 253 255 257 260 261 261 260 258 257 259 260 261 261 260 258 256 257 259 260 262 265 266 263 262 266 270 271 268
271 272 272 273 274 274 275 275 276 278 279 280 281 280 279 278 275 276 278 276 272 272 272 270 271 271 268 267 267 267 270 278 287 292 291 287 282 277 272 271 271 271 272 273 272 268 265 264 262 262 261 260 258 256 255 253 252 252 251 252 254 255 255 255 256 258 260 261 258 256 255 255 256 258 259 259 260 264 265 262 263 268 269 264 259
274 274 274 274 276 277 278 278 279 280 281 282 284 284 284 282 278 277 281 283 283 279 272 270 273 272 266 265 266 264 268 281 292 291 285 280 277 273 270 269 270 270 272 271 265 258 255 255 255 255 255 254 252 250 251 251 251 252 252 252 252 252 252 252 253 256 257 257 255 254 254 254 256 258 257 257 259 262 263 262 264 267 264 257 257
275 275 276 277 279 280 280 281 282 282 282 283 284 286 289 290 285 279 276 279 281 277 269 269 273 273 269 271 275 275 279 287 291 285 279 280 280 279 278 277 273 270 268 265 258 251 248 247 246 246 246 245 245 246 247 248 248 249 251 251 251 250 249 250 251 253 254 253 252 252 252 252 254 256 256 256 257 259 261 263 264 261 256 254 259
276 277 280 281 282 282 282 282 283 282 283 284 284 284 286 291 294 294 290 281 276 275 275 276 279 280 280 282 286 289 290 291 288 283 282 284 285 287 288 286 282 280 279 273 265 256 250 245 242 241 239 238 240 242 243 243 243 243 244 246 248 249 250 251 253 252 251 250 250 250 250 250 252 254 255 255 255 256 259 262 261 256 254 256 260
280 281 284 284 284 284 282 282 283 283 284 285 285 283 281 282 288 296 300 297 289 282 279 278 281 285 287 288 291 293 294 292 289 287 288 289 289 289 288 284 280 280 280 276 270 266 261 255 251 248 244 241 242 245 245 245 246 245 245 245 247 249 252 255 256 254 252 251 250 249 249 250 251 252 252 251 251 252 255 256 255 254 256 259 261
285 285 286 286 285 284 284 284 285 285 286 285 284 283 282 280 281 287 295 300 302 299 293 288 287 290 292 292 293 292 292 292 292 292 292 293 291 289 287 284 279 277 276 275 273 272 270 265 259 255 251 248 249 250 251 253 256 257 257 258 257 257 258 259 257 256 254 252 249 248 248 249 248 247 247 247 246 248 251 253 253 252 253 256 261
289 288 288 287 285 285 286 287 287 286 286 286 286 285 285 285 284 282 283 288 294 296 297 297 296 295 295 295 294 292 290 290 291 291 290 290 290 289 287 284 280 277 276 278 278 275 272 270 268 266 263 261 260 259 259 259 261 261 263 265 265 264 263 261 259 257 254 250 248 247 246 246 246 245 244 243 244 246 249 250 251 252 253 256 261
294 293 292 290 288 288 288 287 287 286 287 289 290 289 288 286 284 283 282 281 281 285 290 295 299 300 298 295 292 291 291 290 290 290 290 289 290 293 294 291 290 287 283 282 282 279 277 276 274 272 270 268 266 265 263 262 262 262 262 263 264 264 263 261 259 256 252 248 246 246 245 246 246 245 243 243 245 247 248 250 253 255 254 255 261
301 298 297 297 295 292 290 289 289 289 290 292 292 292 290 288 285 284 282 281 281 282 286 292 299 302 301 298 296 294 295 296 295 293 292 292 292 295 297 296 292 288 283 281 281 279 277 276 273 271 269 267 265 264 264 263 263 263 263 264 264 263 263 262 260 256 252 248 246 246 246 247 248 246 244 244 245 247 248 252 256 256 253 256 263
306 304 303 302 298 294 292 292 292 292 293 294 293 292 290 288 287 284 282 281 282 283 285 289 293 295 295 298 302 303 302 301 298 295 294 296 295 292 291 289 286 283 280 279 279 277 275 275 273 271 269 266 264 262 261 261 262 263 263 263 264 264 264 263 260 255 252 248 247 247 247 249 250 249 246 244 244 246 250 254 254 253 254 258 263
310 307 305 302 298 296 295 295 295 295 295 294 293 292 289 287 286 284 283 283 283 283 284 287 287 287 290 296 303 307 304 299 295 293 294 294 292 288 284 280 277 276 275 275 275 273 271 271 271 270 269 267 264 261 260 260 261 261 261 261 261 261 260 259 256 253 250 247 246 248 249 250 251 250 247 246 246 249 253 254 252 252 256 260 262
312 309 306 302 300 298 298 296 295 295 295 295 294 292 288 285 285 284 284 284 284 283 284 285 284 287 292 298 302 304 300 293 291 292 293 292 291 289 285 280 276 274 273 272 272 271 269 269 269 268 267 266 264 262 260 259 260 260 259 258 257 256 258 259 258 256 252 248 247 249 250 251 252 251 249 249 250 252 254 254 254 256 258 260 265
310 308 305 304 302 300 298 296 295 296 297 296 294 292 289 287 287 286 284 282 282 283 284 284 285 290 295 298 299 299 295 292 292 293 292 291 291 290 286 283 281 279 278 276 275 273 271 270 268 267 267 265 264 262 259 257 257 257 256 255 254 255 257 259 260 259 255 251 250 251 253 254 253 252 252 251 251 252 254 254 255 257 258 262 268
308 306 304 304 303 301 299 298 299 299 299 296 294 292 291 290 288 286 284 282 281 283 284 285 289 293 297 298 299 298 294 291 290 290 288 288 287 285 284 283 283 281 281 281 280 278 276 274 272 271 269 266 264 261 257 255 254 253 252 252 252 253 255 258 261 262 258 254 252 253 256 257 255 253 254 253 252 252 253 253 255 257 260 265 270
307 306 306 305 304 302 300 301 302 301 299 298 297 295 293 291 288 285 283 283 283 283 284 286 290 295 298 300 301 298 293 289 287 286 286 285 284 283 283 283 283 283 283 282 281 279 278 277 276 275 272 271 269 264 259 257 256 254 252 250 250 253 257 259 261 261 258 254 253 256 258 259 256 254 254 253 252 251 251 253 257 260 263 268 271
311 310 308 307 306 305 303 303 303 302 301 300 299 296 293 290 287 286 284 283 284 285 285 287 291 294 297 299 300 297 292 289 288 286 285 285 285 285 286 286 287 287 286 285 283 281 280 280 280 278 277 276 273 268 263 260 259 256 253 250 250 255 259 262 263 262 259 256 256 258 260 261 259 256 255 253 250 249 250 254 258 262 266 269 270
312 311 309 308 307 306 305 305 304 303 302 300 298 296 294 291 288 287 286 285 286 287 288 289 291 293 293 295 296 294 291 290 289 287 287 287 288 289 290 292 292 291 290 288 287 286 286 285 283 280 279 277 273 267 261 258 259 258 253 249 251 259 266 269 270 268 262 258 257 260 262 263 260 257 255 251 250 252 255 259 261 263 265 268 269
312 310 309 308 307 306 305 305 305 303 302 299 297 296 296 294 291 290 289 287 287 288 289 291 292 292 292 293 293 292 291 290 290 290 290 291 292 293 294 295 294 293 293 293 293 294 293 291 286 282 280 278 273 265 257 254 257 257 251 248 254 263 271 275 274 267 259 256 257 260 262 262 260 257 254 252 254 257 258 260 262 263 264 267 272
314 312 309 307 306 304 304 305 305 303 301 299 296 295 295 295 294 293 292 291 291 290 290 291 292 292 292 292 292 291 292 292 292 293 295 295 295 296 296 296 297 297 298 300 302 301 298 294 288 283 280 276 269 261 255 254 255 253 248 249 258 268 274 275 270 260 254 255 258 261 262 261 259 258 256 253 252 253 254 258 262 263 265 270 274
315 313 311 308 306 304 303 304 304 302 301 300 299 297 296 296 296 295 295 294 294 293 292 293 293 293 293 294 293 293 294 294 295 297 298 298 297 299 299 299 301 303 305 308 309 307 302 295 286 278 274 269 262 257 254 254 253 250 248 253 263 272 276 272 264 256 255 258 261 263 263 261 259 259 257 254 253 253 257 261 263 264 269 274 275
315 313 311 309 306 304 303 303 302 300 300 301 300 299 299 299 298 298 297 297 296 295 294 294 295 295 295 296 296 296 297 298 299 301 301 300 300 302 303 304 306 309 311 313 312 309 302 291 278 270 267 262 256 255 257 257 255 252 251 256 265 273 274 270 263 259 260 262 262 263 262 260 259 258 255 254 256 258 260 263 266 269 273 275 274
315 313 311 309 307 305 304 303 301 300 301 301 300 299 301 301 299 299 300 299 297 297 297 297 297 297 297 298 299 300 301 302 302 302 302 303 304 306 308 310 313 315 316 315 310 304 294 281 271 266 264 259 255 256 259 258 255 254 253 255 261 268 270 269 266 263 263 264 265 264 262 260 257 255 254 256 260 262 262 266 271 274 274 273 273
316 314 312 309 308 307 306 304 303 302 302 302 300 299 299 299 299 300 301 299 298 298 299 299 299 299 299 299 301 303 303 303 304 304 305 307 310 313 318 320 319 318 316 313 307 297 283 272 267 264 260 257 258 262 266 266 265 261 255 251 253 257 262 266 267 266 265 263 261 261 260 257 254 254 256 258 260 263 266 271 274 275 272 272 273